Home > Weather > Faridkot > Past weeks

Flag for India Past Weather in Faridkot, Punjab, India — Yesterday and Last 2 Weeks

Now
97 °F

Haze.


Feels Like: 107 °F
Forecast: 90 / 111 °F
Wind: 7 mph from South

Location: Lahore Airport

Current Time: Jun 25, 2016 at 10:44:43 AM

Latest Report: Jun 25, 2016 at 9:55 AM


Visibility: 3 mi

Pressure: 29.59 "Hg

Humidity: 47%

Dew Point: 73 °F

Location of FaridkotLocation

Past Weather in Faridkot — Graph

°F

Faridkot Temperature Yesterday

Maximum temperature yesterday: 104 °F (at 1:55 PM)
Minimum temperature yesterday: 84 °F (at 4:55 AM)
Average temperature yesterday: 94 °F

High & Low Weather Summary for the Past Weeks

 TemperatureHumidityPressure
High109 °F (Jun 10, 2:29 PM)100% (Jun 22, 9:25 AM)29.68 "Hg (Jun 22, 9:25 AM)
Low73 °F (Jun 17, 2:55 AM)25% (Jun 10, 2:29 PM)29.33 "Hg (Jun 15, 3:55 PM)
Average91 °F56%29.53 "Hg
* Reported Jun 10 8:55 AM — Jun 25 8:55 AM, Faridkot, Weather by CustomWeather, © 2016

Note: Actual official high and low records may vary slightly from our data, if they occured in-between our weather recording intervals... More about our weather records

Advertising

Faridkot Weather History for the Previous 24 Hours

Scroll right to see more
 ConditionsComfort  
Time TempWeatherWind HumidityBarometerVisibility
8:55 AM
Sat, Jun 25
95 °FPassing clouds.No wind53%29.59 "Hg3 mi
8:25 AM93 °FPassing clouds.7 mph56%29.59 "Hg3 mi
7:55 AM91 °FPassing clouds.7 mph59%29.56 "Hg2 mi
7:30 AM90 °FScattered clouds.7 mph63%29.56 "Hg2 mi
7:00 AM90 °FScattered clouds.7 mph63%29.56 "Hg2 mi
5:30 AM88 °FScattered clouds.5 mph66%29.53 "Hg2 mi
5:00 AM88 °FPassing clouds.5 mph66%29.53 "Hg2 mi
4:30 AM88 °FClear.5 mph70%29.53 "Hg2 mi
4:00 AM88 °FClear.7 mph70%29.50 "Hg2 mi
3:25 AM88 °FClear.5 mph70%29.50 "Hg2 mi
2:55 AM88 °FClear.5 mph70%29.50 "Hg2 mi
2:25 AM90 °FClear.6 mph63%29.50 "Hg2 mi
1:55 AM90 °FClear.8 mph63%29.50 "Hg2 mi
1:25 AM90 °FClear.6 mph63%29.50 "Hg2 mi
12:55 AM90 °FClear.7 mph59%29.50 "Hg2 mi
12:25 AM90 °FClear.7 mph59%29.50 "Hg2 mi
11:55 PM
Fri, Jun 24
91 °FClear.6 mph59%29.50 "Hg2 mi
11:25 PM91 °FClear.7 mph59%29.50 "Hg2 mi
10:55 PM91 °FClear.5 mph59%29.50 "Hg2 mi
10:25 PM93 °FClear.7 mph53%29.50 "Hg2 mi
9:55 PM93 °FClear.5 mph53%29.50 "Hg2 mi
9:25 PM95 °FHaze.No wind50%29.47 "Hg2 mi
8:55 PM97 °FHaze.No wind44%29.47 "Hg2 mi
8:25 PM99 °FHaze.No wind42%29.47 "Hg2 mi
7:55 PM100 °FPassing clouds.No wind40%29.45 "Hg3 mi
7:25 PM100 °FPassing clouds.3 mph40%29.45 "Hg4 mi
6:55 PM100 °FPassing clouds.6 mph42%29.45 "Hg4 mi
6:25 PM102 °FPassing clouds.6 mph40%29.45 "Hg4 mi
6:00 PM102 °FPassing clouds.7 mph37%29.45 "Hg4 mi
5:30 PM104 °FPassing clouds.6 mph35%29.45 "Hg4 mi
5:00 PM86 °FPassing clouds.6 mph62%29.45 "Hg4 mi
4:30 PM104 °FPassing clouds.7 mph35%29.47 "Hg4 mi
3:55 PM104 °FPassing clouds.6 mph35%29.47 "Hg4 mi
3:25 PM104 °FPassing clouds.7 mph35%29.47 "Hg5 mi
2:55 PM104 °FPassing clouds.7 mph35%29.50 "Hg6 mi
2:25 PM104 °FPassing clouds.8 mph35%29.50 "Hg6 mi
1:55 PM104 °FPassing clouds.5 mph38%29.50 "Hg6 mi
1:25 PM102 °FPassing clouds.7 mph40%29.53 "Hg6 mi
12:55 PM100 °FPassing clouds.5 mph45%29.56 "Hg5 mi
12:25 PM99 °FPassing clouds.No wind47%29.56 "Hg5 mi
11:55 AM97 °FPassing clouds.No wind47%29.56 "Hg4 mi
11:25 AM97 °FPassing clouds.3 mph47%29.56 "Hg4 mi
10:55 AM95 °FPassing clouds.No wind53%29.56 "Hg4 mi
10:25 AM95 °FPassing clouds.No wind53%29.56 "Hg4 mi
Weather by CustomWeather, © 2016

See weather overviewHow to use our weather pages